User: anonymous   Login
Location: Radomski Observatory
(40.2854°N, 79.5145°W)
Time: 13:27:56
(UTC-04:00)
Language:

Cosmos 1072 Rocket - Orbit

View from above orbital plane
View from above orbital plane
View from above satellite
View from above satellite

Ground track
Ground track

The orbit data is extracted from the following two-line orbital elements,

1 11239U 79003B   15212.19321970 -.00000034  00000-0 -50942-4 0  9991
2 11239 082.9359 238.4718 0041555 150.1860 277.5784 13.75778282833394
Epoch (UTC): 31 July 2015 04:38:14
Eccentricity: 0.0041555
inclination: 82.9359°
perigee height: 948 km
apogee height: 1009 km
right ascension of ascending node: 238.4718°
argument of perigee: 150.1860°
revolutions per day: 13.75778282
mean anomaly at epoch: 277.5784°
orbit number at epoch: 83339

The dashed part of the orbit path shows where the satellite is in the earth's shadow,  

DLR